• In Hungary
  • List of Countries
  • For 7 days
  • Water Temperature
  • Satellite Maps
  • Weather Map
  • News
  • Weather Widgets
  • user-avatar
    Login

    Hourly Weather Bosiyany

    Today, 28 May, Monday

    Time Temperature Precipitation Wind Pressure Humidity
    00:00 +14°C° 0 mm 1 mps 750 mmHg 80%
    01:00 +13°C° 0 mm 2 mps 750 mmHg 80%
    02:00 +13°C° 0 mm 2 mps 750 mmHg 81%
    03:00 +13°C° 0 mm 2 mps 751 mmHg 83%
    04:00 +13°C° 0 mm 2 mps 751 mmHg 84%
    05:00 +14°C° 0 mm 1 mps 751 mmHg 86%
    06:00 +15°C° 0 mm 2 mps 751 mmHg 82%
    07:00 +17°C° 0 mm 2 mps 752 mmHg 79%
    08:00 +19°C° 0 mm 2 mps 752 mmHg 75%
    09:00 +20°C° 0 mm 2 mps 752 mmHg 72%
    10:00 +21°C° 0 mm 3 mps 752 mmHg 69%
    11:00 +22°C° 0 mm 3 mps 752 mmHg 67%
    12:00 +24°C° 0.1 mm 3 mps 752 mmHg 65%
    13:00 +23°C° 0.1 mm 4 mps 752 mmHg 62%
    14:00 +23°C° 0.1 mm 4 mps 752 mmHg 60%
    15:00 +23°C° 0 mm 4 mps 752 mmHg 62%
    16:00 +24°C° 0 mm 3 mps 752 mmHg 63%
    17:00 +22°C° 0 mm 3 mps 752 mmHg 64%
    18:00 +20°C° 0 mm 3 mps 752 mmHg 68%
    19:00 +18°C° 0 mm 3 mps 752 mmHg 72%
    20:00 +16°C° 0 mm 3 mps 753 mmHg 76%
    21:00 +14°C° 0 mm 3 mps 753 mmHg 75%
    22:00 +13°C° 0 mm 3 mps 753 mmHg 74%
    23:00 +12°C° 0 mm 3 mps 754 mmHg 73%

    Tomorrow, 29 May, Tuesday

    Time Temperature Precipitation Wind Pressure Humidity
    00:00 +11°C° 0 mm 3 mps 754 mmHg 75%
    01:00 +11°C° 0 mm 3 mps 754 mmHg 77%
    02:00 +10°C° 0 mm 3 mps 754 mmHg 79%
    03:00 +10°C° 0 mm 3 mps 754 mmHg 80%
    04:00 +10°C° 0 mm 3 mps 754 mmHg 82%
    05:00 +11°C° 0 mm 3 mps 754 mmHg 83%
    06:00 +12°C° 0 mm 3 mps 754 mmHg 80%
    07:00 +14°C° 0 mm 3 mps 754 mmHg 76%
    08:00 +17°C° 0 mm 3 mps 754 mmHg 73%
    09:00 +18°C° 0 mm 3 mps 753 mmHg 70%
    10:00 +20°C° 0 mm 3 mps 753 mmHg 67%
    11:00 +21°C° 0 mm 3 mps 753 mmHg 64%
    12:00 +22°C° 0 mm 3 mps 753 mmHg 63%
    13:00 +22°C° 0 mm 3 mps 752 mmHg 62%
    14:00 +24°C° 0 mm 2 mps 752 mmHg 61%
    15:00 +24°C° 0 mm 2 mps 751 mmHg 63%
    16:00 +24°C° 0 mm 2 mps 750 mmHg 65%
    17:00 +24°C° 0 mm 3 mps 750 mmHg 68%
    18:00 +21°C° 0 mm 2 mps 750 mmHg 73%
    19:00 +20°C° 0 mm 2 mps 749 mmHg 79%
    20:00 +18°C° 0 mm 2 mps 749 mmHg 85%
    21:00 +17°C° 0 mm 2 mps 749 mmHg 86%
    22:00 +16°C° 0 mm 3 mps 749 mmHg 88%
    23:00 +16°C° 0 mm 3 mps 748 mmHg 89%

    Day after tomorrow, 30 May, Wednesday

    Time Temperature Precipitation Wind Pressure Humidity
    00:00 +14°C° 0 mm 3 mps 748 mmHg 89%
    01:00 +14°C° 0 mm 3 mps 748 mmHg 90%
    02:00 +14°C° 0 mm 3 mps 748 mmHg 90%
    03:00 +14°C° 0 mm 3 mps 747 mmHg 90%
    04:00 +14°C° 0 mm 3 mps 747 mmHg 91%
    05:00 +14°C° 0 mm 3 mps 747 mmHg 91%
    06:00 +17°C° 0 mm 3 mps 746 mmHg 88%
    07:00 +19°C° 0 mm 3 mps 746 mmHg 85%
    08:00 +21°C° 0 mm 3 mps 746 mmHg 82%
    09:00 +22°C° 0.4 mm 3 mps 745 mmHg 77%
    10:00 +23°C° 0.4 mm 4 mps 745 mmHg 72%
    11:00 +26°C° 0.4 mm 4 mps 744 mmHg 66%
    12:00 +26°C° 0.3 mm 4 mps 744 mmHg 65%
    13:00 +26°C° 0.3 mm 4 mps 744 mmHg 63%
    14:00 +27°C° 0.3 mm 4 mps 743 mmHg 61%
    15:00 +26°C° 0.3 mm 4 mps 743 mmHg 65%
    16:00 +26°C° 0.3 mm 4 mps 742 mmHg 68%
    17:00 +26°C° 0.3 mm 3 mps 742 mmHg 71%
    18:00 +24°C° 0.1 mm 3 mps 741 mmHg 76%
    19:00 +21°C° 0.1 mm 3 mps 741 mmHg 80%
    20:00 +20°C° 0.1 mm 3 mps 741 mmHg 84%
    21:00 +19°C° 0 mm 3 mps 740 mmHg 86%
    22:00 +18°C° 0 mm 3 mps 740 mmHg 87%
    23:00 +18°C° 0 mm 3 mps 740 mmHg 89%

    31 May, Thursday

    Time Temperature Precipitation Wind Pressure Humidity
    00:00 +17°C° 0 mm 3 mps 740 mmHg 90%
    01:00 +16°C° 0 mm 3 mps 740 mmHg 91%
    02:00 +16°C° 0 mm 3 mps 740 mmHg 93%
    03:00 +14°C° 0 mm 3 mps 740 mmHg 91%
    04:00 +13°C° 0 mm 4 mps 740 mmHg 90%
    05:00 +13°C° 0 mm 4 mps 740 mmHg 88%
    06:00 +13°C° 0 mm 5 mps 740 mmHg 81%
    07:00 +14°C° 0 mm 5 mps 740 mmHg 74%
    08:00 +15°C° 0 mm 5 mps 741 mmHg 67%
    09:00 +16°C° 0 mm 6 mps 741 mmHg 63%
    10:00 +16°C° 0 mm 6 mps 741 mmHg 59%
    11:00 +17°C° 0 mm 6 mps 741 mmHg 55%
    12:00 +17°C° 0 mm 5 mps 742 mmHg 55%
    13:00 +17°C° 0 mm 5 mps 742 mmHg 55%
    14:00 +19°C° 0 mm 5 mps 742 mmHg 55%
    15:00 +17°C° 0 mm 5 mps 742 mmHg 58%
    16:00 +17°C° 0 mm 5 mps 742 mmHg 60%
    17:00 +17°C° 0 mm 4 mps 742 mmHg 62%
    18:00 +15°C° 0 mm 4 mps 743 mmHg 64%
    19:00 +14°C° 0 mm 4 mps 743 mmHg 65%
    20:00 +13°C° 0 mm 4 mps 743 mmHg 66%
    21:00 +12°C° 0 mm 4 mps 744 mmHg 64%
    22:00 +11°C° 0 mm 4 mps 744 mmHg 62%
    23:00 +10°C° 0 mm 4 mps 745 mmHg 59%

    1 June, Friday

    Time Temperature Precipitation Wind Pressure Humidity
    00:00 +8°C° 0 mm 4 mps 745 mmHg 62%
    01:00 +7°C° 0 mm 4 mps 745 mmHg 64%
    02:00 +6°C° 0 mm 4 mps 745 mmHg 66%
    03:00 +6°C° 0 mm 4 mps 746 mmHg 68%
    04:00 +5°C° 0 mm 4 mps 746 mmHg 69%
    05:00 +5°C° 0 mm 4 mps 746 mmHg 71%
    06:00 +7°C° 0 mm 4 mps 747 mmHg 65%
    07:00 +8°C° 0 mm 5 mps 747 mmHg 59%
    08:00 +10°C° 0 mm 5 mps 747 mmHg 54%
    09:00 +10°C° 0 mm 6 mps 748 mmHg 52%
    10:00 +11°C° 0 mm 6 mps 748 mmHg 50%
    11:00 +13°C° 0 mm 6 mps 748 mmHg 49%
    12:00 +14°C° 0 mm 6 mps 748 mmHg 49%
    13:00 +14°C° 0 mm 5 mps 748 mmHg 48%
    14:00 +14°C° 0 mm 5 mps 748 mmHg 48%
    15:00 +14°C° 0 mm 5 mps 748 mmHg 51%
    16:00 +14°C° 0 mm 5 mps 748 mmHg 53%
    17:00 +14°C° 0 mm 4 mps 748 mmHg 55%
    18:00 +12°C° 0 mm 4 mps 748 mmHg 60%
    19:00 +11°C° 0 mm 3 mps 748 mmHg 65%
    20:00 +9°C° 0 mm 3 mps 749 mmHg 70%
    21:00 +8°C° 0 mm 3 mps 749 mmHg 70%
    22:00 +7°C° 0 mm 3 mps 749 mmHg 70%
    23:00 +5°C° 0 mm 3 mps 750 mmHg 70%

    2 June, Saturday

    Time Temperature Precipitation Wind Pressure Humidity
    00:00 +5°C° 0 mm 3 mps 750 mmHg 72%
    01:00 +4°C° 0 mm 3 mps 750 mmHg 73%
    02:00 +3°C° 0 mm 3 mps 750 mmHg 75%
    03:00 +4°C° 0 mm 3 mps 750 mmHg 76%
    04:00 +4°C° 0 mm 3 mps 750 mmHg 76%
    05:00 +4°C° 0 mm 3 mps 751 mmHg 77%
    06:00 +7°C° 0 mm 3 mps 751 mmHg 72%
    07:00 +9°C° 0 mm 3 mps 751 mmHg 66%
    08:00 +11°C° 0 mm 4 mps 751 mmHg 61%
    09:00 +12°C° 0 mm 4 mps 751 mmHg 58%
    10:00 +13°C° 0 mm 4 mps 751 mmHg 55%
    11:00 +14°C° 0 mm 4 mps 751 mmHg 51%
    12:00 +15°C° 0 mm 4 mps 750 mmHg 50%
    13:00 +15°C° 0 mm 4 mps 750 mmHg 49%
    14:00 +17°C° 0 mm 4 mps 750 mmHg 48%
    15:00 +17°C° 0 mm 3 mps 749 mmHg 50%
    16:00 +17°C° 0 mm 3 mps 749 mmHg 51%
    17:00 +17°C° 0 mm 2 mps 749 mmHg 52%
    18:00 +15°C° 0 mm 2 mps 749 mmHg 58%
    19:00 +14°C° 0 mm 1 mps 749 mmHg 63%
    20:00 +12°C° 0 mm 1 mps 749 mmHg 68%
    21:00 +11°C° 0 mm 1 mps 749 mmHg 69%
    22:00 +10°C° 0 mm 1 mps 749 mmHg 71%
    23:00 +9°C° 0 mm 1 mps 749 mmHg 73%
    Show more